When you browse on this site, cookies collect data to enhance your experience and personalize the content and advertising you see.
Visit our Privacy Policy to learn more. By continuing to use the site, you agree to this use of cookies and data.
  • In United Kingdom
  • List of Countries
  • For 7 days
  • Water Temperature
  • Weather Map
  • Weather Widgets
  • user-avatar
    Login

    Hourly Weather Pylypenky

    Today, 20 August, Tuesday

    Time Temperature Precipitation Wind Pressure Humidity
    00:00 +19°C° 0 mm 2 mps 757 mmHg 68%
    01:00 +19°C° 0 mm 2 mps 757 mmHg 70%
    02:00 +19°C° 0 mm 1 mps 757 mmHg 74%
    03:00 +19°C° 0 mm 1 mps 757 mmHg 75%
    04:00 +19°C° 0 mm 1 mps 757 mmHg 76%
    05:00 +18°C° 0 mm 1 mps 758 mmHg 78%
    06:00 +20°C° 0 mm 2 mps 758 mmHg 70%
    07:00 +23°C° 0 mm 2 mps 758 mmHg 63%
    08:00 +25°C° 0 mm 3 mps 758 mmHg 53%
    09:00 +27°C° 0 mm 3 mps 758 mmHg 48%
    10:00 +29°C° 0 mm 3 mps 758 mmHg 42%
    11:00 +30°C° 0 mm 3 mps 758 mmHg 37%
    12:00 +32°C° 0 mm 4 mps 758 mmHg 35%
    13:00 +33°C° 0 mm 4 mps 758 mmHg 32%
    14:00 +34°C° 0 mm 4 mps 757 mmHg 29%
    15:00 +33°C° 0 mm 4 mps 757 mmHg 30%
    16:00 +33°C° 0 mm 4 mps 757 mmHg 32%
    17:00 +33°C° 0 mm 4 mps 757 mmHg 33%
    18:00 +29°C° 0 mm 4 mps 757 mmHg 39%
    19:00 +27°C° 0 mm 4 mps 758 mmHg 45%
    20:00 +25°C° 0 mm 3 mps 758 mmHg 51%
    21:00 +24°C° 0 mm 3 mps 758 mmHg 54%
    22:00 +22°C° 0 mm 3 mps 758 mmHg 57%
    23:00 +21°C° 0 mm 3 mps 758 mmHg 61%

    Tomorrow, 21 August, Wednesday

    Time Temperature Precipitation Wind Pressure Humidity
    00:00 +21°C° 0 mm 3 mps 758 mmHg 63%
    01:00 +20°C° 0 mm 3 mps 758 mmHg 65%
    02:00 +20°C° 0 mm 3 mps 758 mmHg 67%
    03:00 +19°C° 0 mm 3 mps 758 mmHg 69%
    04:00 +19°C° 0 mm 3 mps 758 mmHg 71%
    05:00 +18°C° 0 mm 3 mps 758 mmHg 72%
    06:00 +21°C° 0 mm 3 mps 758 mmHg 65%
    07:00 +24°C° 0 mm 3 mps 758 mmHg 58%
    08:00 +26°C° 0 mm 4 mps 758 mmHg 51%
    09:00 +28°C° 0 mm 4 mps 758 mmHg 45%
    10:00 +30°C° 0 mm 4 mps 758 mmHg 38%
    11:00 +32°C° 0 mm 4 mps 757 mmHg 32%
    12:00 +33°C° 0 mm 5 mps 757 mmHg 29%
    13:00 +34°C° 0 mm 5 mps 757 mmHg 27%
    14:00 +35°C° 0 mm 5 mps 756 mmHg 24%
    15:00 +34°C° 0 mm 5 mps 756 mmHg 26%
    16:00 +33°C° 0 mm 5 mps 756 mmHg 29%
    17:00 +33°C° 0 mm 5 mps 756 mmHg 31%
    18:00 +29°C° 0 mm 4 mps 756 mmHg 37%
    19:00 +27°C° 0 mm 4 mps 756 mmHg 44%
    20:00 +25°C° 0 mm 3 mps 756 mmHg 51%
    21:00 +24°C° 0 mm 3 mps 756 mmHg 56%
    22:00 +22°C° 0 mm 3 mps 756 mmHg 62%
    23:00 +21°C° 0 mm 3 mps 756 mmHg 67%

    Day after tomorrow, 22 August, Thursday

    Time Temperature Precipitation Wind Pressure Humidity
    00:00 +21°C° 0 mm 3 mps 756 mmHg 71%
    01:00 +20°C° 0 mm 3 mps 756 mmHg 74%
    02:00 +20°C° 0 mm 3 mps 756 mmHg 78%
    03:00 +19°C° 0 mm 3 mps 756 mmHg 80%
    04:00 +19°C° 0 mm 3 mps 756 mmHg 82%
    05:00 +18°C° 0 mm 3 mps 755 mmHg 84%
    06:00 +21°C° 0 mm 3 mps 756 mmHg 76%
    07:00 +24°C° 0 mm 3 mps 756 mmHg 67%
    08:00 +26°C° 0 mm 4 mps 756 mmHg 58%
    09:00 +28°C° 0 mm 4 mps 756 mmHg 52%
    10:00 +29°C° 0 mm 5 mps 756 mmHg 45%
    11:00 +32°C° 0 mm 5 mps 756 mmHg 38%
    12:00 +33°C° 0 mm 5 mps 755 mmHg 36%
    13:00 +33°C° 0 mm 5 mps 755 mmHg 34%
    14:00 +34°C° 0 mm 5 mps 755 mmHg 33%
    15:00 +34°C° 0 mm 5 mps 755 mmHg 34%
    16:00 +33°C° 0 mm 5 mps 755 mmHg 35%
    17:00 +33°C° 0 mm 5 mps 755 mmHg 36%
    18:00 +30°C° 0 mm 5 mps 755 mmHg 42%
    19:00 +28°C° 0 mm 4 mps 755 mmHg 48%
    20:00 +26°C° 0 mm 4 mps 756 mmHg 54%
    21:00 +25°C° 0 mm 3 mps 756 mmHg 58%
    22:00 +24°C° 0 mm 3 mps 756 mmHg 61%
    23:00 +22°C° 0 mm 3 mps 756 mmHg 64%

    23 August, Friday

    Time Temperature Precipitation Wind Pressure Humidity
    00:00 +22°C° 0 mm 3 mps 756 mmHg 66%
    01:00 +22°C° 0 mm 3 mps 756 mmHg 68%
    02:00 +21°C° 0 mm 3 mps 756 mmHg 71%
    03:00 +21°C° 0 mm 3 mps 756 mmHg 73%
    04:00 +20°C° 0 mm 3 mps 756 mmHg 76%
    05:00 +20°C° 0 mm 3 mps 756 mmHg 79%
    06:00 +22°C° 0 mm 3 mps 756 mmHg 71%
    07:00 +25°C° 0 mm 4 mps 757 mmHg 64%
    08:00 +26°C° 0 mm 4 mps 757 mmHg 57%
    09:00 +28°C° 0 mm 4 mps 757 mmHg 52%
    10:00 +30°C° 0 mm 4 mps 757 mmHg 46%
    11:00 +32°C° 0 mm 5 mps 757 mmHg 41%
    12:00 +33°C° 0 mm 5 mps 757 mmHg 40%
    13:00 +33°C° 0 mm 5 mps 756 mmHg 39%
    14:00 +34°C° 0 mm 6 mps 756 mmHg 38%
    15:00 +33°C° 0 mm 6 mps 756 mmHg 40%
    16:00 +32°C° 0 mm 6 mps 756 mmHg 42%
    17:00 +32°C° 0 mm 6 mps 756 mmHg 45%
    18:00 +29°C° 0 mm 6 mps 756 mmHg 53%
    19:00 +27°C° 0 mm 5 mps 757 mmHg 61%
    20:00 +25°C° 0 mm 5 mps 757 mmHg 69%
    21:00 +23°C° 0 mm 5 mps 757 mmHg 74%
    22:00 +22°C° 0 mm 5 mps 757 mmHg 79%
    23:00 +21°C° 0 mm 4 mps 757 mmHg 84%

    24 August, Saturday

    Time Temperature Precipitation Wind Pressure Humidity
    00:00 +21°C° 0 mm 4 mps 757 mmHg 87%
    01:00 +20°C° 0 mm 4 mps 757 mmHg 90%
    02:00 +19°C° 0 mm 3 mps 757 mmHg 93%
    03:00 +19°C° 0 mm 4 mps 757 mmHg 94%
    04:00 +19°C° 0 mm 4 mps 757 mmHg 94%
    05:00 +19°C° 0 mm 4 mps 758 mmHg 95%
    06:00 +20°C° 0 mm 4 mps 758 mmHg 86%
    07:00 +22°C° 0 mm 4 mps 758 mmHg 77%
    08:00 +23°C° 0 mm 4 mps 758 mmHg 67%
    09:00 +26°C° 0 mm 4 mps 758 mmHg 60%
    10:00 +28°C° 0 mm 4 mps 758 mmHg 52%
    11:00 +30°C° 0 mm 4 mps 758 mmHg 44%
    12:00 +32°C° 0 mm 4 mps 757 mmHg 41%
    13:00 +33°C° 0 mm 4 mps 757 mmHg 39%
    14:00 +34°C° 0 mm 4 mps 757 mmHg 36%
    15:00 +33°C° 0 mm 5 mps 757 mmHg 37%
    16:00 +32°C° 0 mm 5 mps 757 mmHg 39%
    17:00 +32°C° 0 mm 5 mps 757 mmHg 41%
    18:00 +29°C° 0 mm 5 mps 757 mmHg 46%
    19:00 +27°C° 0 mm 5 mps 757 mmHg 52%
    20:00 +25°C° 0 mm 4 mps 757 mmHg 57%
    21:00 +23°C° 0 mm 4 mps 757 mmHg 59%
    22:00 +22°C° 0 mm 4 mps 757 mmHg 60%
    23:00 +21°C° 0 mm 3 mps 757 mmHg 62%

    25 August, Sunday

    Time Temperature Precipitation Wind Pressure Humidity
    00:00 +20°C° 0 mm 3 mps 757 mmHg 63%
    01:00 +19°C° 0 mm 3 mps 757 mmHg 63%
    02:00 +19°C° 0 mm 3 mps 757 mmHg 64%
    03:00 +18°C° 0 mm 3 mps 757 mmHg 65%
    04:00 +18°C° 0 mm 3 mps 757 mmHg 66%
    05:00 +17°C° 0 mm 3 mps 757 mmHg 67%
    06:00 +19°C° 0 mm 3 mps 757 mmHg 60%
    07:00 +21°C° 0 mm 3 mps 757 mmHg 53%
    08:00 +23°C° 0 mm 4 mps 757 mmHg 47%
    09:00 +26°C° 0 mm 4 mps 757 mmHg 41%
    10:00 +28°C° 0 mm 4 mps 757 mmHg 36%
    11:00 +30°C° 0 mm 4 mps 757 mmHg 31%
    12:00 +30°C° 0 mm 4 mps 757 mmHg 29%
    13:00 +32°C° 0 mm 4 mps 757 mmHg 27%
    14:00 +33°C° 0 mm 5 mps 757 mmHg 26%
    15:00 +32°C° 0 mm 5 mps 757 mmHg 27%
    16:00 +30°C° 0 mm 5 mps 757 mmHg 27%
    17:00 +29°C° 0 mm 6 mps 757 mmHg 28%
    18:00 +27°C° 0 mm 5 mps 757 mmHg 33%
    19:00 +25°C° 0 mm 5 mps 757 mmHg 39%
    20:00 +22°C° 0 mm 4 mps 757 mmHg 44%
    21:00 +21°C° 0 mm 4 mps 758 mmHg 48%
    22:00 +20°C° 0 mm 4 mps 758 mmHg 52%
    23:00 +18°C° 0 mm 3 mps 758 mmHg 57%
    Show more